Weather History for KODX - March, 2014

Change the Weather History Date:

Thursday, March 27, 2014

  Actual Average Record
Temperature  
Mean Temperature 34 °F 42 °F  
Max Temperature 44 °F 55 °F 77 °F (1997)
Min Temperature 24 °F 29 °F 19 °F (2009)
Degree Days  
Heating Degree Days 31 23  
Month to date heating degree days 856 758  
Since 1 July heating degree days 5775  
Cooling Degree Days 0 0  
Month to date cooling degree days 0 0  
Year to date cooling degree days 0 0  
Moisture  
Dew Point 32 °F    
Average Humidity 83    
Maximum Humidity 96    
Minimum Humidity 70    
Precipitation  
Precipitation 0.12 in 0.08 in 0.58 in (1931)
Month to date precipitation 0.08 1.04  
Year to date precipitation 0.33 1.85  
Sea Level Pressure  
Sea Level Pressure 29.52 in    
Wind  
Wind Speed 16 mph (NNW)    
Max Wind Speed 33 mph    
Max Gust Speed 43 mph    
Visibility 4 miles    
Events Fog , Rain , Snow    
T = Trace of Precipitation, MM = Missing Value Source: NWS Daily Summary

Daily Weather History Graph

Daily Weather History Graph

Search for Another Location

Airport or City:

Trip Planner

Search our weather history database for the weather conditions in past years. The results will help you decide how hot, cold, wet, or windy it might be!

Date:

Astronomy

Mar. 27, 2014 Rise Set
Actual Time 7:27 AM CDT 7:55 PM CDT
Civil Twilight 6:59 AM CDT 8:23 PM CDT
Nautical Twilight 6:26 AM CDT 8:56 PM CDT
Astronomical Twilight 5:52 AM CDT 9:30 PM CDT
Moon 5:22 AM CDT (3/27) 4:42 PM CDT (3/27)
Length of Visible Light 13h 24m
Length of Day
12h 28m
Waning Crescent, 13% of the Moon is Illuminated
Mar 27
Waning Crescent
Mar 30
New
Apr 7
First Quarter
Apr 15
Full
Apr 22
Last Quarter

Hourly Weather History & Observations

Time (CDT) Temp. Windchill Dew Point Humidity Pressure Visibility Wind Dir Wind Speed Gust Speed Precip Events Conditions
12:38 AM 44.1 °F 37.1 °F 42.1 °F 93% 29.39 in 2.5 mi South 15.0 mph 23.0 mph N/A   Overcast
12:53 AM 44.1 °F 37.7 °F 42.1 °F 93% 29.41 in 2.5 mi South 12.7 mph 24.2 mph N/A   Overcast
1:37 AM 44.1 °F 40.1 °F 43.0 °F 96% 29.44 in 1.5 mi WSW 6.9 mph - N/A   Overcast
1:53 AM 44.1 °F 42.5 °F 43.0 °F 96% 29.43 in 1.2 mi SSE 3.5 mph - 0.00 in Rain Light Rain
2:14 AM 44.1 °F 42.5 °F 43.0 °F 96% 29.41 in 1.0 mi SE 3.5 mph - 0.00 in Rain Light Rain
2:21 AM 44.1 °F 42.5 °F 43.0 °F 96% 29.40 in 1.0 mi East 3.5 mph - 0.00 in   Overcast
2:38 AM 43.0 °F 41.3 °F 43.0 °F 100% 29.40 in 1.0 mi East 3.5 mph - 0.00 in Rain Light Rain
2:51 AM 42.8 °F 38.6 °F 42.8 °F 100% 29.39 in 0.5 mi East 6.9 mph - 0.00 in Fog , Rain Light Rain
2:53 AM 43.0 °F 38.8 °F 42.1 °F 97% 29.39 in 0.5 mi ESE 6.9 mph - 0.00 in Fog , Rain Light Rain
3:02 AM 43.0 °F 39.5 °F 42.1 °F 97% 29.39 in 1.0 mi East 5.8 mph - 0.00 in Rain Light Rain
3:53 AM 43.0 °F 38.8 °F 42.1 °F 97% 29.35 in 1.2 mi ESE 6.9 mph - 0.01 in   Overcast
4:53 AM 42.1 °F 35.2 °F 41.0 °F 96% 29.32 in 1.2 mi ESE 12.7 mph - N/A   Overcast
5:21 AM 42.1 °F 37.7 °F 41.0 °F 96% 29.34 in 2.0 mi East 6.9 mph - N/A   Overcast
5:44 AM 42.1 °F 37.7 °F 41.0 °F 96% 29.33 in 3.0 mi ESE 6.9 mph - N/A   Overcast
5:53 AM 42.1 °F 39.2 °F 41.0 °F 96% 29.34 in 4.0 mi ESE 4.6 mph - N/A   Overcast
6:53 AM 42.1 °F 40.2 °F 41.0 °F 96% 29.36 in 6.0 mi NE 3.5 mph - N/A   Overcast
7:45 AM 39.0 °F 30.6 °F 34.0 °F 82% 29.38 in 10.0 mi North 15.0 mph - N/A   Overcast
7:53 AM 39.0 °F 31.4 °F 35.1 °F 86% 29.40 in 10.0 mi North 12.7 mph - N/A   Overcast
8:53 AM 36.0 °F 24.4 °F 30.9 °F 82% 29.43 in 10.0 mi NNW 23.0 mph 33.4 mph N/A   Overcast
9:11 AM 35.1 °F 23.3 °F 30.0 °F 82% 29.41 in 10.0 mi NNW 23.0 mph 33.4 mph N/A   Overcast
9:24 AM 34.0 °F 21.5 °F 30.9 °F 89% 29.41 in 9.0 mi NNW 24.2 mph 32.2 mph N/A   Overcast
9:46 AM 34.0 °F 21.0 °F 28.9 °F 82% 29.42 in 10.0 mi NNW 26.5 mph 36.8 mph N/A   Overcast
9:53 AM 34.0 °F 21.3 °F 28.9 °F 82% 29.45 in 10.0 mi NNW 25.3 mph 36.8 mph 0.00 in Rain Light Rain
10:19 AM 32.0 °F 17.9 °F 28.9 °F 88% 29.44 in 3.0 mi NNW 28.8 mph 36.8 mph 0.00 in Rain Light Freezing Rain
10:29 AM 32.0 °F 19.5 °F 28.9 °F 88% 29.44 in 2.5 mi NNW 21.9 mph 38.0 mph 0.01 in Rain Light Freezing Rain
10:40 AM 30.9 °F 16.7 °F 28.0 °F 89% 29.45 in 2.5 mi NNW 27.6 mph 39.1 mph 0.01 in Rain Light Freezing Rain
10:53 AM 30.9 °F 18.1 °F 28.0 °F 89% 29.49 in 2.5 mi NNW 21.9 mph 36.8 mph 0.02 in Rain Light Freezing Rain
11:09 AM 30.0 °F 15.4 °F 27.0 °F 88% 29.46 in 2.0 mi NNW 27.6 mph 40.3 mph 0.01 in Rain Light Freezing Rain
11:30 AM 30.0 °F 15.7 °F 27.0 °F 88% 29.47 in 2.0 mi NNW 26.5 mph 39.1 mph 0.03 in Snow Light Snow
11:35 AM 30.0 °F 14.9 °F 27.0 °F 88% 29.48 in 1.0 mi NNW 29.9 mph 35.7 mph 0.03 in Snow Light Snow
11:42 AM 30.0 °F 15.4 °F 27.0 °F 88% 29.48 in 0.5 mi NNW 27.6 mph 35.7 mph 0.04 in Fog , Snow Snow
11:47 AM 30.2 °F 15.7 °F 26.6 °F 86% 29.49 in 0.5 mi NNW 27.6 mph 36.8 mph 0.04 in Fog , Snow Snow
11:53 AM 30.0 °F 15.7 °F 27.0 °F 88% 29.53 in 0.5 mi NNW 26.5 mph 36.8 mph 0.04 in Fog , Snow Snow
12:01 PM 30.0 °F 16.0 °F 27.0 °F 88% 29.50 in 0.2 mi NW 25.3 mph 33.4 mph 0.01 in Fog , Snow Snow
12:22 PM 30.0 °F 16.3 °F 27.0 °F 88% 29.51 in 0.2 mi NW 24.2 mph 32.2 mph 0.02 in Fog , Snow Heavy Snow
12:29 PM 30.0 °F 16.6 °F 27.0 °F 88% 29.51 in 0.2 mi NNW 23.0 mph 31.1 mph 0.03 in Fog , Snow Heavy Snow
12:47 PM 30.2 °F 15.9 °F 26.6 °F 86% 29.52 in 0.2 mi NNW 26.5 mph 35.7 mph 0.04 in Fog , Snow Snow
12:48 PM 30.0 °F 15.7 °F 27.0 °F 88% 29.56 in 0.5 mi NNW 26.5 mph 35.7 mph 0.04 in Fog , Snow Snow
1:02 PM 30.9 °F 16.9 °F 27.0 °F 85% 29.53 in 0.5 mi NNW 26.5 mph 35.7 mph 0.00 in Fog , Snow Snow
1:09 PM 30.9 °F 17.8 °F 28.0 °F 89% 29.53 in 0.8 mi NNW 23.0 mph 35.7 mph 0.00 in Snow Light Snow
1:21 PM 30.9 °F 16.4 °F 27.0 °F 85% 29.54 in 0.8 mi NNW 28.8 mph 36.8 mph 0.00 in Snow Light Snow
1:29 PM 30.9 °F 16.2 °F 28.0 °F 89% 29.54 in 1.0 mi NNW 29.9 mph 38.0 mph 0.01 in Snow Light Snow
1:34 PM 30.9 °F 16.9 °F 27.0 °F 85% 29.54 in 1.2 mi NNW 26.5 mph 38.0 mph 0.01 in Snow Light Snow
1:53 PM 32.0 °F 18.4 °F 27.0 °F 82% 29.60 in 2.0 mi NNW 26.5 mph 33.4 mph 0.01 in Snow Light Snow
2:16 PM 32.0 °F 18.4 °F 28.0 °F 85% 29.57 in 3.0 mi NW 26.5 mph 33.4 mph 0.00 in Snow Light Snow
2:27 PM 32.0 °F 18.6 °F 27.0 °F 82% 29.58 in 2.5 mi NNW 25.3 mph 36.8 mph 0.00 in Snow Light Snow
2:39 PM 33.1 °F 20.1 °F 28.0 °F 82% 29.58 in 3.0 mi NNW 25.3 mph 36.8 mph 0.00 in Snow Light Snow
2:53 PM 33.1 °F 20.1 °F 27.0 °F 78% 29.64 in 7.0 mi NNW 25.3 mph 38.0 mph 0.00 in   Overcast
3:53 PM 34.0 °F 20.1 °F 28.0 °F 79% 29.67 in 9.0 mi NNW 31.1 mph 42.6 mph 0.00 in   Overcast
4:53 PM 34.0 °F 21.8 °F 28.0 °F 79% 29.71 in 9.0 mi NNW 23.0 mph 34.5 mph N/A   Overcast
5:41 PM 34.0 °F 21.8 °F 27.0 °F 75% 29.69 in 10.0 mi NNW 23.0 mph 33.4 mph N/A   Scattered Clouds
5:53 PM 35.1 °F 22.7 °F 27.0 °F 72% 29.73 in 10.0 mi NNW 25.3 mph 33.4 mph N/A   Scattered Clouds
6:53 PM 34.0 °F 22.7 °F 27.0 °F 75% 29.78 in 10.0 mi NNW 19.6 mph 26.5 mph N/A   Overcast
7:53 PM 33.1 °F 23.0 °F 26.1 °F 75% 29.83 in 10.0 mi NNW 15.0 mph - N/A   Overcast
8:53 PM 33.1 °F 24.4 °F 26.1 °F 75% 29.87 in 10.0 mi NNW 11.5 mph - N/A   Mostly Cloudy
9:53 PM 32.0 °F 24.8 °F 26.1 °F 79% 29.90 in 10.0 mi NW 8.1 mph - N/A   Partly Cloudy
10:53 PM 28.0 °F 20.0 °F 24.1 °F 85% 29.93 in 10.0 mi NW 8.1 mph - N/A   Clear
11:53 PM 26.1 °F 19.4 °F 23.0 °F 88% 29.95 in 10.0 mi WNW 5.8 mph - N/A   Clear